Probability
0 0 0 0 0 0 0 0 0 0 0 0 0 0 0 0 0 0 0 0 0 0 0 0 0 0 0 0 0 0 0 0 0 0 0 0 0 0
0 0 0 0 0 0 0 0 0 0 0 0 0 0 0 0 0 0 0 0 0 0 0 0 0 0 0 0 0 0 0 0 0 0 0 0 0 0
0 0 0 0 0 0 0 0 0 0 0 0 0 0 0 0 0 0 0 0 0 0 0 0 0 0 0 0 0 0 0 0 0 0 0 0 0 0
0 0 0 0 0 0 0 0 0 0 0 0 0 0 0 0 0 0 0 0 0 0 0 0 0 0 0 0 0 0 0 0 0 0 0 0 0 0
0 0 0 0 0 0 0 0 0 0 0 0 0 0 0 0 0 0 0 0 0 0 0 0 0 0 0 0 0 0 0 0 0 0 0 0 0 0
0 0 0 0 0 0 0 0 0 0 0 0 0 0 0 0 0 0 0 0 0 0 0 0 0 0 0 0 0 0 0 0 0 0 0 0 0 0
0 0 0 0 0 0 0 0 0 0 0 0 0 0 0 0 0 0 0 0 0 0 0 0 0 0 0 0 0 0 0 0 0 0 0 0 0 0
0 0 0 0 0 0 0 0 0 0 0 0 0 0 0 0 0 0 0 0 0 0 0 0 0 0 0 0 0 0 0 0 0 0 0 0 0 0
0 0 0 0 0 0 0 0 0 0 0 0 0 0 0 0 0 0 0 0 0 0 0 0 0 0 0 0 0 0 0 0 0 0 0 0 0 0
0 0 0 0 0 0 0 0 0 0 0 0 0 0 0 0 0 0 0 0 0 0 0 0 0 0 0 0 0 0 0 0 0 0 0 0 0 0
0 0 0 0 0 0 0 0 0 0 0 0 0 0 0 0 0 0 0 0 0 0 0 0 0 0 0 0 0 0 0 0 0 0 0 0 0 0
0 0 0 0 0 0 0 0 0 0 0 0 0 0 0 0 0 0 0 0 0 0 0 0 0 0 0 0 0 0 0 0 0 0 0 0 0 0
0 0 0 0 0 0 0 0 0 0 0 0 0 0 0 0 0 0 0 0 0 0 0 0 0 0 0 0 0 0 0 0 0 0 0 0 0 0
0 0 0 0 0 0 0 0 0 0 0 0 0 0 0 0 0 0 0 0 0 0 0 0 0 0 0 0 0 0 0 0 0 0 0 0 0 0
0 0 0 0 0 0 0 0 0 0 0 0 0 0 0 0 0 0 0 0 0 0 0 0 0 0 0 0 0 0 0 0 0 0 0 0 0 0
0 0 0 0 0 0 0 0 0 0 0 0 0 0 0 0 0 0 0 0 0 0 0 0 0 0 0 0 0 0 0 0 0 0 0 0 0 0
0 0 0 0 0 0 0 0 0 0 0 0 0 0 0 0 0 0 0 0 0 0 0 0 0 0 0 0 0 0 0 0 0 0 0 0 0 0
0 0 0 0 0 0 0 0 0 0 0 0 0 0 0 0 0 0 0 0 0 0 0 0 0 0 0 0 0 0 0 0 0 0 0 0 0 0
0 0 0 0 0 0 0 0 0 0 0 0 0 0 0 0 0 0 0 0 0 0 0 0 0 0 0 0 0 0 0 0 0 0 0 0 0 0
0 0 0 0 0 0 0 0 0 0 0 0 0 0 0 0 0 0 0 0 0 0 0 0 0 0 0 0 0 0 0 0 0 0 0 0 0 0
0 0 0 0 0 0 0 0 0 0 0 0 0 0 0 0 0 0 0 0 0 0 0 0 0 0 0 0 0 0 0 0 0 0 0 0 0 0
0 0 0 0 0 0 0 0 0 0 0 0 0 0 0 0 0 0 0 0 0 0 0 0 0 0 0 0 0 0 0 0 0 0 0 0 0 0
0 0 0 0 0 0 0 0 0 0 0 0 0 0 0 0 0 0 0 0 0 0 0 0 0 0 0 0 0 0 0 0 0 0 0 0 0 0
Wind_Speed
3 3 2 2 2 2 2 3 4 2 2 1 0 1 1 1 2 2 2 3 3 3 3 4 4 4 4 4 4 4 4 4 4 5 5 5 6 7
3 3 3 2 2 2 2 2 2 3 2 1 1 1 1 1 2 2 2 3 3 3 3 3 3 3 4 4 4 4 4 4 4 5 5 5 6 7
3 3 4 3 2 2 2 2 1 2 2 1 0 0 1 1 1 1 1 1 1 3 3 3 3 3 3 3 4 5 4 4 5 5 5 5 6 7
4 4 4 3 3 3 2 3 2 2 3 2 1 0 0 0 0 1 1 1 1 3 3 3 3 3 4 4 4 4 4 4 5 5 6 6 7 7
4 4 4 4 3 3 3 3 2 2 2 2 1 0 0 0 0 1 1 1 1 2 3 3 4 5 5 4 4 4 4 4 5 5 5 6 7 8
3 3 3 4 4 4 3 3 3 2 2 2 1 1 0 0 0 0 1 1 2 2 3 3 4 5 5 5 5 5 5 4 5 5 6 6 7 8
2 2 2 3 4 3 3 3 4 3 2 2 1 1 1 1 1 1 1 1 2 1 2 2 3 2 3 4 5 5 5 5 5 6 7 7 8 9
3 2 2 3 4 4 4 4 4 4 4 3 2 2 2 2 1 1 1 1 2 1 1 3 1 2 3 2 5 6 6 6 6 7 8 8 9 9
4 3 2 2 3 4 4 4 3 3 4 3 3 3 3 2 2 1 1 1 2 2 1 3 2 3 3 4 7 7 7 7 8 8 9 9 9 10
3 4 4 3 3 5 4 3 2 1 1 2 2 2 2 2 2 2 2 1 1 1 0 2 2 3 4 4 6 7 8 8 9 9 9 10 10 10
3 3 4 4 6 6 5 4 3 1 2 3 3 2 2 2 2 1 1 0 1 1 0 1 2 3 3 3 4 7 8 9 10 10 10 10 10 10
3 3 4 5 6 6 5 5 4 2 2 2 2 2 1 1 1 1 2 1 1 2 1 1 1 2 3 3 3 3 4 7 9 10 10 11 10 6
3 2 3 6 6 5 4 3 5 4 3 3 2 1 1 1 0 0 1 1 2 2 1 1 1 1 2 4 4 3 3 4 4 6 8 11 11 8
3 3 3 6 5 5 3 4 5 4 2 2 2 1 0 0 1 1 1 1 2 2 2 2 2 2 2 4 5 4 3 4 3 4 4 8 9 11
3 5 5 5 4 3 4 4 4 2 2 2 2 1 1 1 0 0 0 1 1 1 2 2 2 2 3 4 5 4 4 4 3 4 4 4 5 5
3 5 5 5 3 3 3 2 2 2 3 2 2 1 1 0 0 1 1 1 1 2 2 2 3 3 4 5 5 6 4 4 4 4 5 5 5 4
4 3 2 2 2 2 1 1 1 2 2 1 2 1 1 1 1 0 1 1 1 2 3 2 2 3 5 5 5 6 5 5 5 5 5 6 5 5
4 3 3 2 2 2 2 1 1 1 1 1 1 1 1 1 1 1 1 1 2 3 3 2 2 2 2 4 7 6 5 5 4 5 4 6 7 5
2 3 2 2 2 2 2 1 1 1 1 1 1 1 1 1 1 2 2 2 2 3 3 2 1 1 3 6 4 5 4 5 4 5 4 5 7 7
1 2 2 2 2 2 2 1 1 1 1 1 1 1 2 2 2 2 2 3 3 3 3 2 2 3 4 5 5 4 6 6 4 5 5 5 6 8
1 1 1 2 2 2 2 2 2 2 1 2 2 2 2 2 2 3 3 4 4 3 4 4 4 5 3 2 4 5 4 6 7 6 5 6 6 5
1 1 1 2 2 2 2 2 2 2 2 2 2 2 2 2 3 4 3 3 4 4 5 4 3 2 2 3 6 7 6 5 7 10 9 8 5 5
2 2 2 2 2 2 2 2 3 2 2 2 2 2 2 2 3 3 3 4 4 4 4 3 3 2 3 4 5 6 7 7 5 5 5 8 11 13
Wind_Direction
178 178 177 173 167 168 158 162 163 189 240 238 274 337 346 13 34 44 34 35 35 27 18 11 7 7 4 356 349 341 343 340 335 331 333 336 335 337
174 173 180 176 173 167 168 168 168 174 204 208 211 291 344 12 34 40 42 42 37 32 15 3 355 350 349 352 348 338 332 328 325 321 318 325 330 331
178 181 192 178 175 178 166 157 163 159 191 220 192 353 30 5 4 27 29 25 11 13 353 347 340 337 340 342 336 330 325 322 320 316 316 320 324 323
190 188 197 181 185 182 175 177 177 171 173 197 194 210 290 288 16 41 21 25 354 351 343 341 342 343 337 330 326 327 324 320 318 316 315 318 319 318
189 188 192 181 191 187 180 177 169 158 158 166 181 192 217 218 6 27 27 352 337 341 345 345 345 341 336 328 320 321 318 311 310 312 315 316 315 314
179 183 185 187 194 189 181 175 158 146 140 145 158 170 188 175 123 258 340 338 334 346 344 342 340 341 336 329 324 318 315 311 310 310 311 310 308 307
151 160 171 174 177 175 169 165 158 151 148 151 163 162 177 187 209 209 264 312 321 331 333 333 329 327 323 323 320 316 316 311 307 306 306 305 304 303
154 150 146 151 149 147 148 149 155 161 166 168 180 186 208 217 208 197 210 294 296 327 343 312 321 303 302 296 310 314 313 310 305 303 301 300 300 301
157 152 143 132 128 126 121 119 122 139 165 173 178 199 203 210 195 206 222 231 254 292 323 293 306 291 292 300 309 307 309 309 307 304 301 300 300 299
154 157 153 150 145 137 124 112 106 106 152 163 169 184 188 188 193 199 204 226 273 305 285 277 299 292 302 296 303 308 313 314 311 308 305 303 302 300
142 144 149 149 153 147 135 131 119 103 98 129 136 132 127 133 146 127 145 205 286 291 288 252 290 301 296 286 294 308 309 310 310 308 307 307 306 303
127 138 158 163 161 159 155 152 158 169 138 109 93 83 86 96 112 160 191 207 247 269 245 232 288 321 308 294 300 308 305 306 311 310 307 305 305 298
150 155 160 164 165 166 167 169 177 162 141 135 120 95 74 70 56 260 215 208 219 240 233 201 267 281 272 298 302 297 297 299 306 304 304 305 304 301
155 155 156 158 161 163 165 158 157 147 133 134 134 139 149 236 249 234 244 246 240 239 238 211 219 236 270 288 290 300 302 295 295 297 298 305 304 302
139 149 150 148 142 138 147 153 150 144 145 153 174 202 209 217 213 251 293 271 273 268 244 231 229 240 244 262 278 287 300 296 287 293 300 299 293 294
131 135 132 123 115 119 123 133 148 161 166 174 182 187 164 165 212 219 246 274 288 293 271 250 247 240 254 260 262 275 275 282 297 300 300 294 286 277
133 119 116 120 118 113 115 127 137 143 154 164 170 170 175 195 236 238 243 260 256 274 289 285 265 255 247 251 264 267 273 276 282 296 301 299 291 279
135 139 146 149 155 161 166 165 162 172 177 175 177 184 198 216 241 257 245 242 256 267 273 283 300 309 294 264 236 258 268 275 285 290 288 294 296 295
130 143 156 166 169 168 173 185 202 196 177 178 192 205 214 227 238 250 250 255 263 268 269 266 261 263 288 292 274 230 260 283 290 291 282 278 286 293
137 155 166 170 174 178 183 188 188 181 186 197 204 213 220 226 235 244 245 248 260 268 273 261 241 235 245 268 280 276 260 265 276 285 290 288 279 284
163 168 176 179 183 184 186 189 190 198 208 214 220 224 223 223 235 244 248 256 262 258 263 265 256 266 258 269 281 281 272 267 276 279 288 295 298 295
183 191 195 191 186 186 184 188 196 209 217 225 229 230 231 230 237 245 249 253 256 257 262 270 272 266 238 253 274 284 290 296 294 291 281 269 272 278
198 203 207 203 202 200 200 207 212 216 220 223 227 228 227 237 243 245 250 254 258 264 271 276 274 257 254 257 270 281 288 296 301 303 292 286 285 282